Stations météo

Publicité
Macon, France (7385): Température de l'air & dewpoint: 11.08.2019 17:00:00 - 17.08.2019 17:00:00 (CEST)Macon, France (7385): Température de l'air 5cm: 11.08.2019 17:00:00 - 17.08.2019 17:00:00 (CEST)Macon, France (7385): Température de l'air -20cm & Température de l'air -100cm: 11.08.2019 17:00:00 - 17.08.2019 17:00:00 (CEST)Macon, France (7385): Vitesse du vent & gusts: 11.08.2019 17:00:00 - 17.08.2019 17:00:00 (CEST)Macon, France (7385): Direction du vent: 11.08.2019 17:00:00 - 17.08.2019 17:00:00 (CEST)Macon, France (7385): reduced air pressure: 11.08.2019 17:00:00 - 17.08.2019 17:00:00 (CEST)Macon, France (7385): visibility: 11.08.2019 17:00:00 - 17.08.2019 17:00:00 (CEST)Macon, France (7385): Ensoleillement: 11.08.2019 17:00:00 - 17.08.2019 17:00:00 (CEST)Macon, France (7385): Quantités de précipitations: 11.08.2019 17:00:00 - 17.08.2019 17:00:00 (CEST)
Date & Time tt [°C] td [°C] tt 5cm [°C] tt -20cm [°C] tt -100cm [°C] ff [km/h] ff [knt] fx [km/h] fx [knt] dd ppp [hPa] vv [km] sd [min] rr [mm]
17.08.2019 17:00:00 29,3 13,5 30,4 21,9 20,0 11 6 22 12 SSE 1011,3 20 4 0,0
17.08.2019 16:00:00 30,0 12,9 29,4 21,7 20,0 12 6 27 14 S 1011,8 20 26 0,0
17.08.2019 15:00:00 28,3 14,2 30,0 21,5 20,0 18 10 31 17 SE 1012,5 20 51 0,0
17.08.2019 14:00:00 27,6 14,2 29,4 21,2 20,0 19 10 30 16 SSE 1013,2 20 56 0,0
17.08.2019 13:00:00 25,4 15,4 30,1 21,1 20,0 15 8 26 14 SSE 1014,1 20 60 0,0
17.08.2019 12:00:00 23,4 15,7 23,9 21,0 20,0 10 5 18 10 SSE 1014,6 20 20 0,0
17.08.2019 11:00:00 21,8 15,2 25,0 21,0 20,0 9 5 14 8 SE 1015,2 20 56 0,0
17.08.2019 10:00:00 19,7 14,5 18,2 21,0 20,0 6 4 10 6 S 1015,4 20 14 0,0
17.08.2019 09:00:00 16,9 13,0 16,5 21,2 20,0 4 2 8 4 SSE 1015,7 20 0 0,0
17.08.2019 08:00:00 15,8 12,5 14,4 21,3 20,1 0 0 10 5 N 1015,7 20 0 0,0
17.08.2019 07:00:00 15,1 12,0 13,9 21,4 20,1 5 3 9 5 SSE 1015,5 20 0 0,0
17.08.2019 06:00:00 15,2 12,0 13,3 21,5 20,1 6 3 12 7 SSE 1015,5 20 0 0,0
17.08.2019 05:00:00 14,8 11,4 11,3 21,7 20,1 4 2 8 4 S 1015,4 20 0 0,0
17.08.2019 04:00:00 14,9 11,5 11,3 21,8 20,1 3 2 10 5 SSE 1015,3 20 0 0,0
17.08.2019 03:00:00 15,5 11,7 12,1 22,0 20,1 6 3 9 5 SE 1015,0 20 0 0,0
17.08.2019 02:00:00 16,4 12,2 12,8 22,1 20,1 6 3 13 7 SSE 1015,2 20 0 0,0
17.08.2019 01:00:00 16,7 12,2 12,8 22,3 20,1 4 2 9 5 SE 1015,5 20 0 0,0
17.08.2019 00:00:00 19,0 11,3 15,2 22,4 20,1 8 4 13 7 S 1015,4 20 0 0,0
16.08.2019 23:00:00 19,1 11,1 14,7 22,4 20,1 4 2 8 4 SSW 1015,5 20 0 0,0
16.08.2019 22:00:00 19,2 11,7 14,8 22,4 20,1 3 1 8 4 S 1015,5 20 0 0,0
16.08.2019 21:00:00 20,7 12,1 16,2 22,4 20,1 6 3 12 6 SSE 1015,4 10 2 0,0
16.08.2019 20:00:00 23,4 13,3 22,9 22,3 20,1 6 4 18 10 SSE 1015,4 20 45 0,0
16.08.2019 19:00:00 23,5 12,5 24,1 22,0 20,1 9 5 16 9 SSE 1015,1 20 37 0,0
16.08.2019 18:00:00 24,8 12,4 27,7 21,7 20,1 8 5 18 10 SSE 1015,6 20 58 0,0
16.08.2019 17:00:00 24,7 12,3 26,5 21,5 20,1 8 5 17 9 SE 1016,4 20 48 0,0
16.08.2019 16:00:00 24,3 12,3 28,1 21,2 20,1 10 5 18 10 ENE 1016,8 20 57 0,0
16.08.2019 15:00:00 23,8 12,7 26,9 20,9 20,1 9 5 22 12 ENE 1017,5 20 58 0,0
16.08.2019 14:00:00 23,8 13,3 26,3 20,7 20,1 8 4 16 9 NE 1017,9 20 39 0,0
16.08.2019 13:00:00 23,0 12,0 26,7 20,5 20,1 4 2 13 7 NW 1018,5 20 43 0,0
16.08.2019 12:00:00 22,0 12,3 25,1 20,4 20,1 4 2 13 7 SSE 1018,8 20 51 0,0
16.08.2019 11:00:00 20,7 12,1 23,2 20,4 20,2 8 4 17 9 NE 1019,4 20 56 0,0
16.08.2019 10:00:00 20,4 12,4 22,7 20,4 20,1 6 3 14 8 NE 1019,8 20 58 0,0
16.08.2019 09:00:00 18,3 12,1 18,5 20,5 20,1 0 0 6 3 N 1020,4 20 60 0,0
16.08.2019 08:00:00 15,5 11,9 11,8 20,7 20,1 2 1 4 2 SSE 1020,9 20 57 0,0
16.08.2019 07:00:00 13,5 10,8 11,7 20,8 20,1 2 1 16 9 NNE 1020,7 20 0 0,0
16.08.2019 06:00:00 15,8 9,9 11,5 21,0 20,2 9 5 22 12 NW 1020,3 20 0 0,0
16.08.2019 05:00:00 13,2 9,4 9,3 21,2 20,2 8 4 14 7 WNW 1020,8 20 0 0,0
16.08.2019 04:00:00 13,5 9,5 10,1 21,3 20,2 4 2 9 5 W 1021,3 20 0 0,0
16.08.2019 03:00:00 14,1 10,9 10,3 21,4 20,2 4 2 9 5 S 1021,5 20 0 0,0
16.08.2019 02:00:00 15,7 9,6 11,5 21,6 20,2 5 3 10 5 NW 1021,4 20 0 0,0
16.08.2019 01:00:00 17,1 10,0 14,2 21,7 20,2 5 3 14 8 NW 1021,2 20 0 0,0
16.08.2019 00:00:00 17,5 9,9 13,7 21,8 20,2 7 4 13 7 NNW 1021,3 20 0 0,0
15.08.2019 23:00:00 17,7 10,3 13,4 21,9 20,2 6 3 12 6 NW 1020,9 20 0 0,0
15.08.2019 22:00:00 18,0 10,8 14,9 21,9 20,2 6 3 14 8 NW 1020,6 20 0 0,0
15.08.2019 21:00:00 19,6 10,8 17,3 21,9 20,2 9 5 16 9 WNW 1019,9 20 17 0,0
15.08.2019 20:00:00 22,2 10,7 22,3 21,8 20,2 13 7 31 17 NW 1019,3 20 60 0,0
15.08.2019 19:00:00 23,6 10,6 23,6 21,7 20,2 12 6 27 15 WNW 1018,9 20 53 0,0
15.08.2019 18:00:00 23,1 10,2 23,6 21,5 20,2 14 7 33 18 WNW 1018,7 20 11 0,0
15.08.2019 17:00:00 23,9 9,8 25,5 21,3 20,2 17 9 48 26 W 1018,3 20 50 0,0
15.08.2019 16:00:00 23,4 11,4 22,4 21,3 20,2 13 7 30 16 W 1018,2 20 17 0,0
15.08.2019 15:00:00 23,0 11,7 23,1 21,2 20,2 14 7 34 19 W 1018,4 20 24 0,0
15.08.2019 14:00:00 21,9 11,3 21,7 21,1 20,2 14 8 29 16 W 1018,4 20 4 0,0
15.08.2019 13:00:00 20,2 13,4 20,4 21,2 20,3 7 4 33 18 W 1018,6 20 0 0,0
15.08.2019 12:00:00 19,9 13,4 19,7 21,1 20,2 13 7 39 21 W 1018,2 20 0 0,0
15.08.2019 11:00:00 20,2 13,9 20,1 21,2 20,2 13 7 39 21 W 1017,9 20 0 0,0
15.08.2019 10:00:00 18,8 13,9 17,5 21,2 20,2 10 6 29 16 NW 1017,6 20 0 0,0
15.08.2019 09:00:00 18,0 12,7 17,3 21,3 20,3 4 2 13 7 SSW 1017,5 20 2 0,0
15.08.2019 08:00:00 16,7 12,0 15,7 21,4 20,3 9 5 13 7 SSE 1016,9 20 0 0,0
15.08.2019 07:00:00 16,0 12,2 15,6 21,5 20,3 5 3 12 7 SE 1016,8 20 0 0,0
15.08.2019 06:00:00 16,0 11,6 15,5 21,6 20,3 6 3 10 6 SSE 1016,7 20 0 0,0
15.08.2019 05:00:00 15,8 11,4 14,6 21,7 20,3 4 2 7 4 SSE 1017,0 20 0 0,0
15.08.2019 04:00:00 15,1 10,7 12,7 21,8 20,3 0 0 5 3 N 1017,3 20 0 0,0
15.08.2019 03:00:00 14,8 10,6 13,0 22,0 20,3 2 1 5 3 SE 1017,2 20 0 0,0
15.08.2019 02:00:00 14,7 10,5 13,0 22,2 20,4 0 0 5 3 N 1017,5 20 0 0,0
15.08.2019 01:00:00 15,9 9,8 14,1 22,3 20,3 4 2 11 6 W 1017,6 20 0 0,0
15.08.2019 00:00:00 16,2 10,1 14,1 22,4 20,3 8 4 13 7 W 1017,8 20 0 0,0
14.08.2019 23:00:00 16,7 10,3 14,6 22,5 20,4 7 4 10 6 W 1017,5 20 0 0,0
14.08.2019 22:00:00 18,5 10,3 14,3 22,6 20,4 5 3 8 4 WNW 1017,5 20 0 0,0
14.08.2019 21:00:00 20,3 9,5 15,5 22,5 20,4 3 2 9 5 SE 1016,7 20 22 0,0
14.08.2019 20:00:00 23,4 9,0 22,8 22,4 20,4 5 3 14 7 E 1016,3 20 60 0,0
14.08.2019 19:00:00 24,2 7,8 26,7 22,1 20,4 7 4 20 11 ENE 1016,4 20 60 0,0
14.08.2019 18:00:00 25,0 8,9 29,0 21,8 20,4 6 3 17 9 NNE 1016,6 20 60 0,0
14.08.2019 17:00:00 24,7 9,4 29,6 21,4 20,4 7 4 20 11 NNE 1017,1 20 60 0,0
14.08.2019 16:00:00 24,3 8,3 30,4 21,1 20,4 6 4 17 9 NNE 1017,7 20 60 0,0
14.08.2019 15:00:00 23,8 9,8 25,0 20,8 20,4 5 3 22 12 E 1018,3 20 60 0,0
14.08.2019 14:00:00 22,7 9,5 24,7 20,6 20,4 11 6 34 18 ENE 1019,0 20 60 0,0
14.08.2019 13:00:00 22,3 7,7 26,5 20,3 20,4 11 6 26 14 NNE 1019,5 20 60 0,0
14.08.2019 12:00:00 21,6 8,8 25,6 20,2 20,4 13 7 24 13 NE 1019,9 20 60 0,0
14.08.2019 11:00:00 21,1 9,0 25,3 20,2 20,4 11 6 22 12 N 1020,4 20 60 0,0
14.08.2019 10:00:00 20,4 10,8 21,9 20,3 20,4 6 4 17 9 N 1020,5 20 60 0,0
14.08.2019 09:00:00 16,9 10,0 16,0 20,5 20,4 4 2 12 6 SE 1020,6 20 54 0,0
14.08.2019 08:00:00 15,2 7,5 13,0 20,6 20,5 10 6 18 10 NW 1020,6 20 53 0,0
14.08.2019 07:00:00 13,2 7,4 11,1 20,8 20,4 11 6 19 10 WNW 1020,3 20 0 0,0
14.08.2019 06:00:00 12,3 7,4 10,8 21,0 20,5 10 5 15 8 WNW 1020,4 20 0 0,0
14.08.2019 05:00:00 12,4 7,3 11,1 21,2 20,5 10 5 16 9 WNW 1020,6 20 0 0,0
14.08.2019 04:00:00 13,8 7,3 12,2 21,4 20,5 11 6 16 9 WNW 1020,8 20 0 0,0
14.08.2019 03:00:00 14,5 7,3 12,7 21,5 20,5 9 5 16 8 NW 1020,9 20 0 0,0
14.08.2019 02:00:00 14,3 7,3 12,7 21,7 20,5 9 5 14 7 WNW 1021,2 20 0 0,0
14.08.2019 01:00:00 14,9 7,4 13,4 21,8 20,5 10 6 25 13 WNW 1021,2 20 0 0,0
14.08.2019 00:00:00 16,1 7,6 14,3 22,0 20,5 16 9 23 12 WNW 1020,9 20 0 0,0
13.08.2019 23:00:00 16,3 7,8 14,4 22,1 20,5 9 5 16 8 NW 1020,6 20 0 0,0
13.08.2019 22:00:00 16,9 8,3 13,6 22,2 20,5 9 5 12 6 WNW 1020,3 20 0 0,0
13.08.2019 21:00:00 18,8 9,0 15,0 22,2 20,5 5 3 10 5 NW 1019,8 20 23 0,0
13.08.2019 20:00:00 20,4 10,2 20,7 22,1 20,5 7 4 14 8 NNE 1019,4 20 48 0,0
13.08.2019 19:00:00 21,5 10,0 22,1 22,0 20,5 9 5 16 9 N 1019,3 20 29 0,0
13.08.2019 18:00:00 22,6 9,7 21,3 21,8 20,5 13 7 22 12 N 1019,3 20 27 0,0
13.08.2019 17:00:00 20,8 9,7 22,1 21,6 20,5 11 6 19 10 NNE 1019,6 20 21 0,0
13.08.2019 16:00:00 21,7 10,5 21,6 21,5 20,5 10 6 22 12 N 1019,8 20 13 0,0
13.08.2019 15:00:00 21,3 9,2 21,0 21,3 20,5 11 6 26 14 N 1020,1 20 34 0,0
13.08.2019 14:00:00 19,7 9,3 21,3 21,2 20,5 15 8 27 14 NNE 1020,8 20 18 0,0
13.08.2019 13:00:00 20,4 9,3 20,3 21,1 20,5 12 6 26 14 N 1021,0 20 31 0,0
13.08.2019 12:00:00 18,1 10,9 19,3 21,0 20,5 9 5 25 13 NNE 1021,6 20 8 0,0
13.08.2019 11:00:00 18,6 11,2 21,0 21,0 20,6 11 6 19 11 NNE 1021,8 20 37 0,0
13.08.2019 10:00:00 18,8 11,1 17,8 21,2 20,6 13 7 23 13 N 1021,7 20 60 0,0
13.08.2019 09:00:00 15,6 11,0 14,3 21,3 20,6 16 9 25 14 WNW 1022,0 20 45 0,0
13.08.2019 08:00:00 13,8 10,6 13,2 21,5 20,6 10 5 21 12 WNW 1022,4 20 6 0,0
13.08.2019 07:00:00 13,7 10,1 12,8 21,7 20,6 12 6 25 13 NW 1022,1 20 0 0,0
13.08.2019 06:00:00 14,0 10,0 12,6 21,9 20,6 15 8 25 13 NW 1021,4 20 0 0,0
13.08.2019 05:00:00 14,1 9,9 10,6 22,1 20,6 6 3 13 7 NW 1020,9 20 0 0,0
13.08.2019 04:00:00 13,8 10,0 10,5 22,3 20,6 6 3 10 5 WNW 1021,2 20 0 0,0
13.08.2019 03:00:00 14,3 10,1 11,1 22,4 20,6 4 2 10 5 NNW 1021,2 20 0 0,0
13.08.2019 02:00:00 14,8 10,2 11,6 22,6 20,6 4 2 8 5 NNW 1021,3 20 0 0,0
13.08.2019 01:00:00 14,8 11,9 12,0 22,7 20,6 3 2 6 3 NNE 1021,3 20 0 0,0
13.08.2019 00:00:00 15,8 11,4 12,4 22,9 20,6 3 2 9 5 ESE 1020,8 20 0 0,0
12.08.2019 23:00:00 17,1 11,6 13,7 23,0 20,6 5 3 8 5 WNW 1020,0 20 0 0,0
12.08.2019 22:00:00 18,8 11,8 17,3 23,0 20,6 8 4 21 11 NW 1019,5 20 0 0,0
12.08.2019 21:00:00 20,2 12,2 17,3 23,0 20,6 3 2 8 4 W 1018,2 20 0 0,0
12.08.2019 20:00:00 21,7 10,8 20,5 22,9 20,6 3 2 12 7 WSW 1017,6 20 15 0,0
12.08.2019 19:00:00 23,8 10,5 23,8 22,6 20,6 7 4 25 14 W 1016,8 20 42 0,0
12.08.2019 18:00:00 24,1 11,4 24,8 22,4 20,6 14 8 27 15 W 1016,7 20 50 0,0
12.08.2019 17:00:00 23,8 13,3 25,4 22,1 20,6 7 4 14 8 S 1016,5 20 27 0,0
12.08.2019 16:00:00 23,1 13,0 25,1 21,8 20,6 8 4 21 11 S 1016,9 20 41 0,0
12.08.2019 15:00:00 22,8 13,3 23,6 21,6 20,6 7 4 16 9 ESE 1017,4 20 44 0,0
12.08.2019 14:00:00 20,9 12,6 21,8 21,4 20,6 6 3 11 6 S 1018,1 20 22 0,0
12.08.2019 13:00:00 19,4 13,3 21,8 21,3 20,6 3 2 9 5 SSW 1018,4 20 9 0,0
12.08.2019 12:00:00 19,6 13,8 22,6 21,3 20,7 0 0 9 5 N 1018,7 20 34 0,0
12.08.2019 11:00:00 17,3 13,4 18,2 21,3 20,7 2 1 9 5 SW 1019,0 20 9 0,0
12.08.2019 10:00:00 15,7 12,8 15,0 21,4 20,6 4 2 9 5 E 1019,0 20 2 0,0
12.08.2019 09:00:00 14,9 12,8 14,2 21,5 20,6 2 1 10 5 E 1018,9 20 0 0,2
12.08.2019 08:00:00 14,6 12,5 13,9 21,7 20,7 6 4 21 11 SSE 1019,3 11 0 0,8
12.08.2019 07:00:00 14,3 12,3 13,7 21,8 20,6 8 4 16 9 WNW 1018,2 20 0 0,0
12.08.2019 06:00:00 14,0 12,0 13,4 21,9 20,7 5 3 13 7 NW 1018,7 19 0 0,0
12.08.2019 05:00:00 14,0 12,0 13,1 22,1 20,7 6 3 11 6 NNW 1018,7 20 0 0,0
12.08.2019 04:00:00 14,3 12,3 13,1 22,2 20,6 3 2 6 3 NNW 1019,1 20 0 0,0
12.08.2019 03:00:00 14,8 12,8 13,6 22,3 20,7 0 0 8 4 N 1019,2 17 0 0,0
12.08.2019 02:00:00 15,3 13,3 15,0 22,4 20,6 2 1 10 5 W 1019,6 17 0 0,0
12.08.2019 01:00:00 15,3 13,1 14,9 22,6 20,7 4 2 8 4 SSW 1020,3 20 0 0,4
12.08.2019 00:00:00 15,4 12,9 14,8 22,7 20,6 0 0 9 5 N 1019,9 20 0 0,6
11.08.2019 23:00:00 15,4 12,9 15,0 22,8 20,7 4 2 11 6 SE 1019,6 20 0 0,0
11.08.2019 22:00:00 15,4 12,7 14,6 22,9 20,6 2 1 8 4 WNW 1019,4 20 0 0,0
11.08.2019 21:00:00 15,8 12,5 15,5 23,0 20,7 3 1 11 6 N 1018,9 20 11 0,0
11.08.2019 20:00:00 16,1 12,6 16,0 23,1 20,6 6 3 14 7 NNE 1018,6 20 0 0,0
11.08.2019 19:00:00 16,2 13,1 16,1 23,2 20,6 9 5 20 11 NE 1018,0 20 0 0,0
11.08.2019 18:00:00 15,8 13,3 15,6 23,3 20,6 10 5 21 12 N 1017,9 20 0 0,4
11.08.2019 17:00:00 15,4 12,7 15,3 23,4 20,6 10 5 31 17 NNW 1018,5 20 0 1,4

tt = Température de l'air
td = dewpoint
tt 5cm = Température de l'air 5cm
tt -20cm = Température de l'air -20cm
tt -100cm = Température de l'air -100cm
ff = Vitesse du vent
fx = gusts
dd = Direction du vent
ppp = reduced air pressure
vv = visibility
sd = Ensoleillement
rr = Quantités de précipitations

stations d'obs. à proximité